Location: Unspecified
(0.0000°N, 0.0000°E)
Time: 11:43:28
(UTC+00:00)

Explorer 11/Cluster Stage 4 - Pass Details

Date: 03 October 2020
Orbit: 467 x 1258 km, 28.8° (Epoch: 28 October)

Event Time Altitude Azimuth Distance (km) Brightness Sun altitude
Rises 18:28:47 0° 242° (WSW) 2,626 10.7 -10.0°
Reaches altitude 10° 18:31:06 10° 243° (WSW) 1,675 9.5 -10.5°
Maximum altitude 18:34:50 76° 329° (NNW) 481 5.6 -11.5°
Enters shadow 18:37:42 15° 54° (NE) 1,315 7.2 -12.2°
Drops below altitude 10° 18:38:25 10° 55° (NE) 1,607 - -12.4°
Sets 18:40:36 0° 57° (ENE) 2,507 - -12.9°
